Satellite-Ground Cal/Val Site Overpasses Predictions

Prediction of Satellite NPP Overpassing Cal/Val Site: Antarctic Dome C

Ground Cal/Val Site Location: Latitude: -75.10, Longitude: 123.35; Satellite-Ground Site NADIR distance within 100 km.

Table of predicted overpasses for the next 14.0 days since TLE Epoch: 12/31/2011
Interval Starting Time Ending Time Minimum Distance Time Minimum Distance (km)
1 12/31/2011 14:54:42 12/31/2011 14:55:11 12/31/2011 14:54:57 18.46
2 01/01/2012 14:35:59 01/01/2012 14:36:12 01/01/2012 14:36:05 88.78
3 01/02/2012 07:37:29 01/02/2012 07:37:56 01/02/2012 07:37:43 38.55
4 01/03/2012 07:18:40 01/03/2012 07:19:01 01/03/2012 07:18:51 71.68
5 01/05/2012 15:00:50 01/05/2012 15:01:15 01/05/2012 15:01:03 54.79
6 01/06/2012 14:41:59 01/06/2012 14:42:24 01/06/2012 14:42:11 54.56
7 01/07/2012 07:43:38 01/07/2012 07:43:58 01/07/2012 07:43:48 73.14
8 01/08/2012 07:24:43 01/08/2012 07:25:11 01/08/2012 07:24:57 34.93
9 01/10/2012 15:07:03 01/10/2012 15:07:14 01/10/2012 15:07:09 91.76
10 01/11/2012 14:48:01 01/11/2012 14:48:30 01/11/2012 14:4
